Weather History for KDAL - December, 2013

Change the Weather History Date:

Sunday, December 8, 2013

  Actual Average Record
Temperature  
Mean Temperature 30 °F -  
Max Temperature 33 °F 57 °F 77 °F (2007)
Min Temperature 26 °F 39 °F 17 °F (2005)
Degree Days  
Heating Degree Days 36    
Moisture  
Dew Point 27 °F    
Average Humidity 86    
Maximum Humidity 93    
Minimum Humidity 82    
Precipitation  
Precipitation 0.00 in - - ()
Sea Level Pressure  
Sea Level Pressure 30.17 in    
Wind  
Wind Speed 2 mph (WSW)    
Max Wind Speed 7 mph    
Max Gust Speed -    
Visibility 3 miles    
Events      
Averages and records for this station are not official NWS values.
T = Trace of Precipitation, MM = Missing Value Source: NWS Daily Summary

Daily Weather History Graph

Daily Weather History Graph

Search for Another Location

Airport or City:

Trip Planner

Search our weather history database for the weather conditions in past years. The results will help you decide how hot, cold, wet, or windy it might be!

Date:

Astronomy

Dec. 08, 2013 Rise Set
Actual Time 7:17 AM CST 5:21 PM CST
Civil Twilight 6:50 AM CST 5:48 PM CST
Nautical Twilight 6:19 AM CST 6:18 PM CST
Astronomical Twilight 5:49 AM CST 6:48 PM CST
Moon 11:53 AM CST (12/8) 11:55 PM CST (12/8)
Length of Visible Light 10h 57m
Length of Day
10h 03m
Waxing Crescent, 40% of the Moon is Illuminated
Dec 8
Waxing Crescent
Dec 9
First Quarter
Dec 17
Full
Dec 25
Last Quarter
Jan 1
New

Hourly Weather History & Observations

Time (CST) Temp. Windchill Dew Point Humidity Pressure Visibility Wind Dir Wind Speed Gust Speed Precip Events Conditions
12:53 AM 27.0 °F - 23.0 °F 85% 30.27 in 6.0 mi Calm Calm - N/A   Overcast
1:53 AM 27.0 °F - 23.0 °F 85% 30.25 in 3.0 mi Calm Calm - N/A   Overcast
2:53 AM 27.0 °F 23.0 °F 23.0 °F 85% 30.24 in 3.0 mi WNW 3.5 mph - N/A   Overcast
3:16 AM 26.6 °F 22.6 °F 23.0 °F 86% 30.21 in 2.0 mi West 3.5 mph - 0.00 in   Light Freezing Drizzle
3:48 AM 26.6 °F 21.2 °F 24.8 °F 93% 30.21 in 1.5 mi NW 4.6 mph - 0.00 in   Light Freezing Drizzle
3:53 AM 27.0 °F 23.0 °F 24.1 °F 89% 30.22 in 1.5 mi NNW 3.5 mph - 0.00 in   Light Freezing Drizzle
4:51 AM 26.6 °F 22.6 °F 24.8 °F 93% 30.19 in 1.5 mi NW 3.5 mph - 0.00 in   Light Freezing Drizzle
4:53 AM 28.0 °F 22.8 °F 24.1 °F 85% 30.21 in 1.5 mi WNW 4.6 mph - 0.00 in   Light Freezing Drizzle
5:35 AM 28.4 °F - 24.8 °F 86% 30.19 in 1.5 mi Calm Calm - 0.00 in   Light Freezing Drizzle
5:53 AM 28.0 °F 24.2 °F 24.1 °F 85% 30.20 in 1.5 mi NW 3.5 mph - 0.00 in   Light Freezing Drizzle
6:43 AM 28.4 °F - 24.8 °F 86% 30.19 in 1.5 mi Calm Calm - 0.00 in   Overcast
6:53 AM 28.0 °F 24.2 °F 25.0 °F 88% 30.20 in 1.5 mi NNW 3.5 mph - 0.00 in   Overcast
7:53 AM 28.0 °F - 25.0 °F 88% 30.21 in 1.0 mi Calm Calm - N/A   Overcast
8:53 AM 28.9 °F - 25.0 °F 85% 30.21 in 1.0 mi Calm Calm - N/A   Overcast
9:53 AM 28.9 °F 25.2 °F 26.1 °F 89% 30.20 in 2.0 mi SSW 3.5 mph - N/A   Overcast
10:53 AM 30.0 °F - 27.0 °F 88% 30.19 in 2.0 mi Calm Calm - N/A   Overcast
11:23 AM 30.2 °F 26.7 °F 26.6 °F 86% 30.16 in 3.0 mi SW 3.5 mph - N/A   Overcast
11:53 AM 30.9 °F 26.2 °F 27.0 °F 85% 30.16 in 4.0 mi SW 4.6 mph - N/A   Overcast
12:53 PM 32.0 °F 26.4 °F 28.0 °F 85% 30.10 in 5.0 mi SW 5.8 mph - N/A   Overcast
1:53 PM 33.1 °F 27.7 °F 28.0 °F 82% 30.07 in 6.0 mi SW 5.8 mph - N/A   Haze
2:53 PM 33.1 °F 27.7 °F 28.0 °F 82% 30.07 in 6.0 mi WSW 5.8 mph - N/A   Haze
3:53 PM 33.1 °F 30.0 °F 28.0 °F 82% 30.07 in 5.0 mi SW 3.5 mph - N/A   Overcast
4:53 PM 33.1 °F 26.9 °F 28.0 °F 82% 30.08 in 5.0 mi SW 6.9 mph - N/A   Overcast
5:53 PM 33.1 °F 30.0 °F 28.0 °F 82% 30.09 in 6.0 mi SSW 3.5 mph - N/A   Overcast
6:53 PM 33.1 °F 28.7 °F 28.0 °F 82% 30.10 in 6.0 mi South 4.6 mph - N/A   Overcast
7:53 PM 33.1 °F - 28.9 °F 85% 30.13 in 6.0 mi Calm Calm - N/A   Overcast
8:53 PM 33.1 °F 30.0 °F 28.9 °F 85% 30.14 in 5.0 mi South 3.5 mph - N/A   Overcast
9:53 PM 33.1 °F 27.7 °F 28.9 °F 85% 30.14 in 4.0 mi SE 5.8 mph - N/A   Overcast
10:07 PM 32.0 °F 26.4 °F 28.4 °F 87% 30.14 in 3.0 mi SSE 5.8 mph - N/A   Overcast
10:31 PM 33.8 °F - 30.2 °F 87% 30.15 in 2.0 mi Calm Calm - N/A   Overcast
10:53 PM 33.1 °F 30.0 °F 30.0 °F 89% 30.17 in 2.0 mi South 3.5 mph - N/A   Overcast
11:51 PM 32.0 °F - 30.2 °F 93% 30.17 in 1.0 mi Calm Calm - N/A   Overcast
11:53 PM 32.0 °F 28.7 °F 30.0 °F 92% 30.18 in 1.0 mi ENE 3.5 mph - N/A   Overcast